Location: *
(49.6619°S, 177.4603°W)
Time: 01:28:34
(UTC+00:00)

Meteor 1-10 Rocket - Pass Details

Date: 31 January 2023
Orbit: 836 x 909 km, 81.2° (Epoch: 20 March)

Event Time Altitude Azimuth Distance (km) Brightness Sun altitude
Exits shadow 11:38:08 48° 356° (N) 1,182 4.5 -22.7°
Maximum altitude 11:39:56 85° 80° (E) 929 4.3 -22.8°
Drops below altitude 10° 11:45:56 10° 167° (SSE) 2,614 7.7 -22.9°
Sets 11:48:24 0° 167° (SSE) 3,553 8.7 -22.9°
